Date String (YYYY-MM-DD hh:mm:ss) UTC,Instrument flags,absolute air pressure of the measurement (hPa),sample flow rate (lpm),inlet stack bypass flow (lpm),air temperature of the measurement (°C),ambient temperature measured by the external sensor (°C),aerosol sample conditioner tube jacket temperature (°C),OPC LED temperature (°C),internal box temperature (°C),relative humidity of the measurement (%),span deviation,mass concentration of particles derived from Lorenz-Mie calculation of OPC scattering (μg/m³),mass concentration of particles derived from Lorenz-Mie calculation of OPC scattering (μg/m³),mass concentration of particles derived from Lorenz-Mie calculation of OPC scattering (μg/m³)
DateTimeUTC,F1_M11,P_M11,Q1_M11,Q2_M11,T1_M11,T2_M11,T3_M11,T4_M11,T5_M11,U1_M11,ZSPAN_M11,X0_M11,X2_M11,X1_M11
2023-08-17 12:00:00,SystemResetWarning,0836.0,5.00,000.00,028.2,024.4,000.0,036.6,029.5,30.0,0002.3,0031.49,0017.98,0016.75
2023-08-17 12:01:00,SystemResetWarning,0836.0,5.00,000.00,028.1,024.8,000.0,036.7,029.5,30.3,0002.2,0032.06,0017.99,0016.74
2023-08-17 12:02:00,SystemResetWarning,0836.1,5.00,000.00,028.1,025.1,000.0,036.7,029.5,30.5,0002.6,0032.02,0018.06,0016.76
2023-08-17 12:03:00,SystemResetWarning,0836.1,5.00,000.00,028.1,025.5,000.0,036.7,029.7,30.5,0002.7,0030.77,0018.10,0016.79
2023-08-17 12:04:00,SystemResetWarning,0836.1,5.01,000.00,028.1,025.8,000.0,036.7,029.7,30.6,0002.6,0028.69,0018.15,0016.84
2023-08-17 12:05:00,SystemResetWarning,0836.1,5.00,000.00,028.1,026.1,000.0,036.7,029.8,30.6,0002.7,0027.95,0018.16,0016.90
2023-08-17 12:06:00,SystemResetWarning,0836.1,5.00,000.00,028.2,026.4,000.0,036.7,029.8,30.6,0002.8,0027.37,0018.23,0016.91
2023-08-17 12:07:00,SystemResetWarning,0836.1,5.00,000.00,028.2,026.6,000.0,036.7,029.9,30.7,0002.9,0026.37,0018.25,0016.94
2023-08-17 12:08:00,SystemResetWarning,0836.1,5.00,000.00,028.2,026.7,000.0,036.7,029.9,31.0,0002.9,0026.60,0018.31,0016.98
2023-08-17 12:09:00,SystemResetWarning,0836.1,5.00,000.00,028.2,026.9,000.0,036.7,030.0,30.8,0003.0,0026.76,0018.31,0017.00
2023-08-17 12:10:00,SystemResetWarning,0836.1,5.00,000.00,028.3,027.0,000.0,036.7,030.0,30.6,0002.9,0026.29,0018.36,0017.02
2023-08-17 12:11:00,SystemResetWarning,0836.2,5.00,000.00,028.3,027.1,000.0,036.8,030.1,30.4,0002.8,0026.49,0018.42,0017.09
2023-08-17 12:12:00,SystemResetWarning,0836.2,4.99,000.00,028.3,027.2,000.0,036.8,030.1,30.4,0002.9,0026.51,0018.51,0017.18
2023-08-17 12:13:00,SystemResetWarning,0836.2,4.98,000.00,028.4,027.3,000.0,036.8,030.1,30.4,0002.5,0026.35,0018.54,0017.24
2023-08-17 12:14:00,SystemResetWarning,0836.2,5.00,000.00,028.4,027.3,000.0,036.8,030.2,30.5,0002.2,0027.15,0018.61,0017.29
2023-08-17 12:15:00,SystemResetWarning,0836.2,5.01,000.00,028.4,027.1,000.0,036.8,030.2,30.4,0001.8,0027.99,0018.66,0017.33
2023-08-17 12:16:00,SystemResetWarning,0836.2,4.99,000.00,028.4,025.3,000.0,036.7,029.9,30.6,0001.4,0029.57,0018.70,0017.34
2023-08-17 12:17:00,SystemResetWarning,0836.2,5.00,000.00,028.3,024.4,000.0,036.6,029.7,30.7,0000.9,0029.55,0018.69,0017.36
2023-08-17 12:18:00,SystemResetWarning,0836.2,5.01,000.00,028.2,024.4,000.0,036.6,029.5,30.7,0000.6,0030.13,0018.73,0017.40
2023-08-17 12:19:00,SystemResetWarning,0836.2,5.00,000.00,028.2,024.7,000.0,036.7,029.5,30.9,0000.9,0030.23,0018.76,0017.39
2023-08-17 12:20:00,SystemResetWarning,0836.3,5.01,000.00,028.1,025.1,000.0,036.7,029.6,30.9,0000.7,0029.96,0018.81,0017.39
2023-08-17 12:21:00,SystemResetWarning,0836.3,5.00,000.00,028.1,025.5,000.0,036.7,029.7,30.9,0000.7,0030.30,0018.80,0017.39
2023-08-17 12:22:00,SystemResetWarning,0836.3,5.00,000.00,028.1,025.8,000.0,036.7,029.7,30.9,0000.9,0029.89,0018.79,0017.36
2023-08-17 12:23:00,SystemResetWarning,0836.3,5.01,000.00,028.1,026.1,000.0,036.7,029.8,31.0,0000.8,0029.45,0018.79,0017.34
2023-08-17 12:24:00,SystemResetWarning,0836.3,5.00,000.00,028.2,026.3,000.0,036.7,029.8,30.9,0000.9,0029.60,0018.81,0017.34
2023-08-17 12:25:00,SystemResetWarning,0836.2,5.00,000.00,028.2,026.5,000.0,036.7,029.9,30.9,0001.1,0029.59,0018.81,0017.34
2023-08-17 12:26:00,SystemResetWarning,0836.2,5.00,000.00,028.2,026.7,000.0,036.7,029.9,30.9,0001.6,0028.90,0018.82,0017.34
2023-08-17 12:27:00,SystemResetWarning,0836.3,4.99,000.00,028.2,026.8,000.0,036.7,030.0,31.1,0001.9,0027.52,0018.84,0017.35
2023-08-17 12:28:00,SystemResetWarning,0836.3,5.00,000.00,028.3,027.0,000.0,036.8,030.0,31.0,0002.3,0027.93,0018.85,0017.35
2023-08-17 12:29:00,SystemResetWarning,0836.3,5.00,000.00,028.3,027.1,000.0,036.8,030.0,30.9,0002.7,0029.16,0018.84,0017.36
2023-08-17 12:30:00,SystemResetWarning,0836.3,5.00,000.00,028.3,027.1,000.0,036.8,030.1,30.9,0002.8,0029.69,0018.85,0017.38
2023-08-17 12:31:00,SystemResetWarning,0836.3,5.00,000.00,028.4,027.2,000.0,036.8,030.1,30.7,0002.9,0029.57,0018.87,0017.38
2023-08-17 12:32:00,SystemResetWarning,0836.3,5.00,000.00,028.4,027.3,000.0,036.8,030.2,30.6,0003.0,0029.37,0018.88,0017.40
2023-08-17 12:33:00,SystemResetWarning,0836.3,5.01,000.00,028.4,027.4,000.0,036.9,030.2,30.5,0002.8,0029.01,0018.89,0017.38
2023-08-17 12:34:00,SystemResetWarning,0836.4,4.99,000.00,028.5,026.6,000.0,036.8,030.1,30.5,0002.9,0029.25,0018.89,0017.36
2023-08-17 12:35:00,SystemResetWarning,0836.3,5.00,000.00,028.4,024.8,000.0,036.7,029.9,30.5,0002.9,0029.16,0018.85,0017.30
2023-08-17 12:36:00,SystemResetWarning,0836.3,5.02,000.00,028.3,024.3,000.0,036.6,029.7,30.6,0002.8,0028.70,0018.76,0017.25
2023-08-17 12:37:00,SystemResetWarning,0836.3,4.99,000.00,028.2,024.5,000.0,036.7,029.5,30.8,0002.7,0029.39,0018.74,0017.23
2023-08-17 12:38:00,SystemResetWarning,0836.3,5.00,000.00,028.2,024.9,000.0,036.7,029.5,31.0,0002.9,0029.88,0018.71,0017.21
2023-08-17 12:39:00,SystemResetWarning,0836.4,5.00,000.00,028.1,025.3,000.0,036.7,029.6,31.1,0002.7,0029.46,0018.70,0017.20
2023-08-17 12:40:00,SystemResetWarning,0836.4,5.00,000.00,028.1,025.6,000.0,036.7,029.7,31.0,0002.4,0028.31,0018.68,0017.16
2023-08-17 12:41:00,SystemResetWarning,0836.4,5.00,000.00,028.2,025.9,000.0,036.7,029.8,31.1,0002.3,0027.98,0018.59,0017.11
2023-08-17 12:42:00,SystemResetWarning,0836.4,4.99,000.00,028.2,026.2,000.0,036.7,029.8,31.1,0002.3,0028.60,0018.54,0017.08
2023-08-17 12:43:00,SystemResetWarning,0836.4,5.00,000.00,028.2,026.4,000.0,036.7,029.9,31.0,0002.0,0028.52,0018.50,0017.05
2023-08-17 12:44:00,SystemResetWarning,0836.4,5.00,000.00,028.2,026.6,000.0,036.7,029.9,31.0,0002.2,0028.45,0018.52,0017.07
2023-08-17 12:45:00,SystemResetWarning,0836.4,5.00,000.00,028.2,026.7,000.0,036.8,029.9,31.1,0002.4,0028.10,0018.53,0017.09
2023-08-17 12:46:00,SystemResetWarning,0836.4,5.00,000.00,028.3,026.9,000.0,036.8,030.0,31.0,0002.5,0027.81,0018.56,0017.12
2023-08-17 12:47:00,SystemResetWarning,0836.5,5.00,000.00,028.3,027.0,000.0,036.8,030.0,31.0,0002.4,0027.91,0018.66,0017.15
2023-08-17 12:48:00,SystemResetWarning,0836.5,5.00,000.00,028.3,027.1,000.0,036.8,030.1,31.1,0002.1,0027.13,0018.64,0017.14
2023-08-17 12:49:00,SystemResetWarning,0836.5,4.99,000.00,028.4,027.2,000.0,036.8,030.1,31.1,0001.8,0026.65,0018.60,0017.13
2023-08-17 12:50:00,SystemResetWarning,0836.5,4.98,000.00,028.4,027.3,000.0,036.8,030.1,31.1,0001.7,0026.29,0018.58,0017.11
2023-08-17 12:51:00,SystemResetWarning,0836.5,4.99,000.00,028.4,027.3,000.0,036.9,030.2,31.1,0001.9,0026.10,0018.59,0017.12
2023-08-17 12:52:00,SystemResetWarning,0836.5,5.01,000.00,028.5,027.4,000.0,036.9,030.2,31.0,0002.3,0025.72,0018.63,0017.14
2023-08-17 12:53:00,SystemResetWarning,0836.4,5.01,000.00,028.5,027.0,000.0,036.9,030.2,31.0,0002.3,0024.95,0018.65,0017.15
2023-08-17 12:54:00,SystemResetWarning,0836.4,4.99,000.00,028.5,025.3,000.0,036.8,030.0,31.0,0002.5,0025.09,0018.67,0017.15
2023-08-17 12:55:00,SystemResetWarning,0836.4,5.02,000.00,028.4,024.6,000.0,036.7,029.8,31.1,0002.3,0024.70,0018.59,0017.12
2023-08-17 12:56:00,SystemResetWarning,0836.4,5.00,000.00,028.3,024.7,000.0,036.7,029.5,31.3,0002.3,0024.62,0018.55,0017.10
2023-08-17 12:57:00,SystemResetWarning,0836.4,5.00,000.00,028.2,025.0,000.0,036.7,029.6,31.4,0002.4,0024.61,0018.49,0017.09
2023-08-17 12:58:00,SystemResetWarning,0836.4,5.00,000.00,028.2,025.4,000.0,036.8,029.7,31.5,0002.0,0025.24,0018.43,0017.07
2023-08-17 12:59:00,SystemResetWarning,0836.4,5.00,000.00,028.2,025.7,000.0,036.8,029.7,31.7,0002.0,0025.71,0018.37,0017.04
